PISAT

Last updated on Mon Sep 07 2026 00:03:32 GMT+0000 (Coordinated Universal Time)

1 41784U 16059B 26249.53825386 .00000530 00000+0 97757-4 0 9994 2 41784 97.8241 246.5235 0027789 307.6300 52.2385 14.69112673531684
UTC large
Height (km)
Speed (km/s)
/
Latitude / Longitude
Inclination (degrees)
Orbital Period (minutes)
Azimuth
Elevation
Range (km)
Doppler Factor

Next 0 passes for location: London (51.5072 / 0.1276)

No passes found over London.
PISAT